When you browse on this site, cookies collect data to enhance your experience and personalize the content and advertising you see.
Visit our Privacy Policy to learn more. By continuing to use the site, you agree to this use of cookies and data.
  • In Hungary
  • List of Countries
  • For 7 days
  • Water Temperature
  • Satellite Maps
  • Weather Map
  • News
  • Weather Widgets
  • user-avatar
    Login

    Hourly Weather Geraardsbergen

    Today, 19 November, Monday

    Time Temperature Precipitation Wind Pressure Humidity
    00:00 -2°C° 0 mm 6 mps 765 mmHg 59%
    01:00 -2°C° 0 mm 6 mps 765 mmHg 65%
    02:00 -2°C° 0 mm 6 mps 765 mmHg 71%
    03:00 -2°C° 0 mm 6 mps 764 mmHg 77%
    04:00 -2°C° 0 mm 6 mps 764 mmHg 81%
    05:00 -1°C° 0 mm 6 mps 764 mmHg 86%
    06:00 -1°C° 0 mm 6 mps 764 mmHg 92%
    07:00 +1°C° 0 mm 6 mps 763 mmHg 88%
    08:00 +2°C° 0 mm 7 mps 763 mmHg 84%
    09:00 +3°C° 0 mm 7 mps 763 mmHg 79%
    10:00 +3°C° 0 mm 7 mps 762 mmHg 77%
    11:00 +3°C° 0 mm 7 mps 762 mmHg 74%
    12:00 +4°C° 0 mm 7 mps 761 mmHg 72%
    13:00 +4°C° 0 mm 7 mps 761 mmHg 71%
    14:00 +3°C° 0 mm 7 mps 760 mmHg 69%
    15:00 +3°C° 0 mm 6 mps 760 mmHg 68%
    16:00 +3°C° 0 mm 6 mps 759 mmHg 69%
    17:00 +2°C° 0 mm 6 mps 759 mmHg 71%
    18:00 +2°C° 0 mm 6 mps 759 mmHg 72%
    19:00 +1°C° 0 mm 6 mps 759 mmHg 72%
    20:00 0°C° 0 mm 7 mps 758 mmHg 72%
    21:00 0°C° 0 mm 7 mps 758 mmHg 73%
    22:00 0°C° 0 mm 7 mps 758 mmHg 73%
    23:00 -1°C° 0 mm 7 mps 758 mmHg 73%

    Tomorrow, 20 November, Tuesday

    Time Temperature Precipitation Wind Pressure Humidity
    00:00 -1°C° 0 mm 7 mps 757 mmHg 73%
    01:00 -1°C° 0 mm 7 mps 757 mmHg 73%
    02:00 -1°C° 0 mm 7 mps 756 mmHg 72%
    03:00 -1°C° 0 mm 7 mps 756 mmHg 72%
    04:00 -1°C° 0 mm 7 mps 755 mmHg 72%
    05:00 -1°C° 0 mm 6 mps 755 mmHg 72%
    06:00 -1°C° 0 mm 6 mps 755 mmHg 72%
    07:00 -1°C° 0 mm 7 mps 755 mmHg 70%
    08:00 0°C° 0 mm 7 mps 754 mmHg 67%
    09:00 0°C° 0 mm 7 mps 754 mmHg 65%
    10:00 +2°C° 0 mm 7 mps 754 mmHg 63%
    11:00 +2°C° 0 mm 7 mps 754 mmHg 61%
    12:00 +3°C° 0 mm 7 mps 753 mmHg 59%
    13:00 +3°C° 0 mm 6 mps 753 mmHg 60%
    14:00 +3°C° 0 mm 6 mps 753 mmHg 61%
    15:00 +3°C° 0 mm 5 mps 753 mmHg 62%
    16:00 +2°C° 0 mm 5 mps 753 mmHg 65%
    17:00 +2°C° 0 mm 5 mps 753 mmHg 68%
    18:00 +3°C° 0 mm 4 mps 753 mmHg 70%
    19:00 +3°C° 0 mm 4 mps 753 mmHg 73%
    20:00 +3°C° 0 mm 4 mps 753 mmHg 75%
    21:00 +1°C° 0 mm 4 mps 753 mmHg 77%
    22:00 +1°C° 0 mm 4 mps 754 mmHg 79%
    23:00 +2°C° 0 mm 3 mps 754 mmHg 81%

    Day after tomorrow, 21 November, Wednesday

    Time Temperature Precipitation Wind Pressure Humidity
    00:00 +1°C° 0 mm 3 mps 754 mmHg 83%
    01:00 +1°C° 0 mm 3 mps 755 mmHg 86%
    02:00 0°C° 0 mm 3 mps 755 mmHg 88%
    03:00 0°C° 0 mm 3 mps 755 mmHg 90%
    04:00 0°C° 0 mm 3 mps 756 mmHg 90%
    05:00 -1°C° 0 mm 3 mps 756 mmHg 91%
    06:00 -1°C° 0 mm 2 mps 757 mmHg 91%
    07:00 +1°C° 0 mm 2 mps 758 mmHg 87%
    08:00 +2°C° 0 mm 2 mps 758 mmHg 82%
    09:00 +2°C° 0 mm 2 mps 759 mmHg 78%
    10:00 +3°C° 0 mm 2 mps 760 mmHg 73%
    11:00 +6°C° 0 mm 1 mps 760 mmHg 68%
    12:00 +7°C° 0 mm 1 mps 760 mmHg 63%
    13:00 +7°C° 0 mm 1 mps 760 mmHg 66%
    14:00 +6°C° 0 mm 2 mps 760 mmHg 69%
    15:00 +5°C° 0 mm 2 mps 761 mmHg 72%
    16:00 +5°C° 0 mm 2 mps 761 mmHg 74%
    17:00 +4°C° 0 mm 2 mps 761 mmHg 77%
    18:00 +4°C° 0 mm 2 mps 761 mmHg 80%
    19:00 +4°C° 0 mm 2 mps 762 mmHg 81%
    20:00 +4°C° 0 mm 2 mps 762 mmHg 83%
    21:00 +4°C° 0 mm 2 mps 762 mmHg 84%
    22:00 +3°C° 0.1 mm 2 mps 762 mmHg 85%
    23:00 +3°C° 0.1 mm 2 mps 762 mmHg 87%

    22 November, Thursday

    Time Temperature Precipitation Wind Pressure Humidity
    00:00 +3°C° 0.1 mm 2 mps 762 mmHg 88%
    01:00 +3°C° 0 mm 2 mps 762 mmHg 89%
    02:00 +3°C° 0 mm 2 mps 762 mmHg 90%
    03:00 +3°C° 0 mm 1 mps 762 mmHg 91%
    04:00 +2°C° 0 mm 2 mps 762 mmHg 91%
    05:00 +2°C° 0 mm 2 mps 762 mmHg 91%
    06:00 +2°C° 0 mm 2 mps 762 mmHg 91%
    07:00 +3°C° 0 mm 2 mps 762 mmHg 89%
    08:00 +3°C° 0 mm 2 mps 763 mmHg 87%
    09:00 +3°C° 0 mm 2 mps 763 mmHg 85%
    10:00 +4°C° 0 mm 2 mps 763 mmHg 81%
    11:00 +5°C° 0 mm 2 mps 763 mmHg 78%
    12:00 +6°C° 0 mm 2 mps 763 mmHg 74%
    13:00 +7°C° 0 mm 1 mps 763 mmHg 76%
    14:00 +7°C° 0 mm 1 mps 763 mmHg 78%
    15:00 +7°C° 0 mm 1 mps 763 mmHg 80%
    16:00 +6°C° 0 mm 1 mps 763 mmHg 83%
    17:00 +5°C° 0 mm 1 mps 763 mmHg 86%
    18:00 +3°C° 0 mm 2 mps 763 mmHg 90%
    19:00 +3°C° 0 mm 2 mps 764 mmHg 90%
    20:00 +3°C° 0 mm 2 mps 764 mmHg 91%
    21:00 +2°C° 0 mm 2 mps 764 mmHg 92%
    22:00 +2°C° 0 mm 2 mps 764 mmHg 92%
    23:00 +2°C° 0 mm 2 mps 764 mmHg 93%

    23 November, Friday

    Time Temperature Precipitation Wind Pressure Humidity
    00:00 +2°C° 0 mm 2 mps 764 mmHg 93%
    01:00 +2°C° 0 mm 2 mps 764 mmHg 93%
    02:00 +2°C° 0 mm 2 mps 764 mmHg 93%
    03:00 +2°C° 0 mm 2 mps 764 mmHg 93%
    04:00 +2°C° 0 mm 2 mps 764 mmHg 93%
    05:00 +2°C° 0 mm 2 mps 764 mmHg 93%
    06:00 +2°C° 0 mm 2 mps 764 mmHg 93%
    07:00 +2°C° 0 mm 3 mps 764 mmHg 91%
    08:00 +3°C° 0 mm 3 mps 764 mmHg 89%
    09:00 +4°C° 0 mm 3 mps 764 mmHg 86%
    10:00 +5°C° 0 mm 3 mps 764 mmHg 83%
    11:00 +7°C° 0 mm 3 mps 764 mmHg 79%
    12:00 +8°C° 0 mm 3 mps 764 mmHg 75%
    13:00 +8°C° 0 mm 2 mps 763 mmHg 77%
    14:00 +8°C° 0 mm 2 mps 763 mmHg 79%
    15:00 +8°C° 0 mm 2 mps 763 mmHg 81%
    16:00 +7°C° 0 mm 2 mps 763 mmHg 84%
    17:00 +6°C° 0 mm 2 mps 763 mmHg 86%
    18:00 +5°C° 0 mm 2 mps 762 mmHg 89%
    19:00 +5°C° 0 mm 2 mps 762 mmHg 89%
    20:00 +5°C° 0 mm 2 mps 762 mmHg 90%
    21:00 +4°C° 0 mm 2 mps 762 mmHg 90%
    22:00 +4°C° 0 mm 2 mps 762 mmHg 90%
    23:00 +4°C° 0 mm 2 mps 762 mmHg 91%

    24 November, Saturday

    Time Temperature Precipitation Wind Pressure Humidity
    00:00 +4°C° 0 mm 2 mps 762 mmHg 91%
    01:00 +4°C° 0 mm 2 mps 761 mmHg 91%
    02:00 +4°C° 0 mm 1 mps 761 mmHg 91%
    03:00 +4°C° 0 mm 1 mps 761 mmHg 92%
    04:00 +3°C° 0 mm 2 mps 761 mmHg 92%
    05:00 +3°C° 0 mm 2 mps 761 mmHg 93%
    06:00 +3°C° 0 mm 2 mps 761 mmHg 93%
    07:00 +4°C° 0 mm 2 mps 761 mmHg 93%
    08:00 +4°C° 0 mm 2 mps 762 mmHg 92%
    09:00 +5°C° 0 mm 2 mps 762 mmHg 91%
    10:00 +6°C° 0.2 mm 2 mps 762 mmHg 90%
    11:00 +7°C° 0.2 mm 3 mps 762 mmHg 89%
    12:00 +7°C° 0.2 mm 3 mps 762 mmHg 87%
    13:00 +7°C° 0.1 mm 3 mps 762 mmHg 88%
    14:00 +7°C° 0.1 mm 2 mps 762 mmHg 89%
    15:00 +7°C° 0.1 mm 2 mps 762 mmHg 90%
    16:00 +7°C° 0 mm 2 mps 762 mmHg 91%
    17:00 +7°C° 0 mm 2 mps 762 mmHg 91%
    18:00 +7°C° 0 mm 2 mps 762 mmHg 91%
    19:00 +6°C° 0 mm 2 mps 762 mmHg 92%
    20:00 +5°C° 0 mm 2 mps 762 mmHg 93%
    21:00 +5°C° 0 mm 2 mps 762 mmHg 93%
    22:00 +4°C° 0 mm 2 mps 762 mmHg 94%
    23:00 +4°C° 0 mm 2 mps 762 mmHg 94%
    Show more